Location: Unspecified
(0.0000°N, 0.0000°E)
Time: 03:47:45
(UTC+00:00)

N. Korean satellite - Pass Details

Date: 09 May 2021
Orbit: 450 x 501 km, 97.2° (Epoch: 16 May)

Event Time Altitude Azimuth Distance (km) Brightness Sun altitude
Rises 05:03:13 0° 7° (N) 2,439 10.5 -12.7°
Reaches altitude 10° 05:05:14 10° 5° (N) 1,571 9.4 -12.2°
Maximum altitude 05:08:35 71° 281° (WNW) 480 6.3 -11.4°
Drops below altitude 10° 05:11:58 10° 197° (SSW) 1,588 8.8 -10.6°
Sets 05:14:01 0° 194° (SSW) 2,468 9.8 -10.1°
